Location: Lawrence
(38.9720°N, 95.2350°W)
Time: 04:09:41
(UTC-05:00)

ISS - Visible Passes

Search period start: 15 October 2019 00:00
Search period end: 25 October 2019 00:00
Orbit: 411 x 421 km, 51.6° (Epoch: 15 October)

Date Brightness Start Highest point End Pass type
(mag) Time Alt. Az. Time Alt. Az. Time Alt. Az.
21 Oct -0.2 06:48:27 10° SE 06:49:01 10° SE 06:49:34 10° ESE visible
23 Oct -1.8 06:45:17 10° SSW 06:48:16 30° SE 06:51:17 10° ENE visible
24 Oct -1.0 05:57:35 10° S 05:59:52 17° SE 06:02:09 10° E visible
